Cloud_Cover
98 35 24 27 35 100 72 100 71 100 100 46 7 2 1 0 0 0 0 0 0 0 0 0 0 0 0 0 0 0 11 26 5 4 0 0 0 5 53 100 87 4 5 83 100
16 22 19 20 30 36 85 15 100 44 68 24 39 94 94 10 0 0 0 0 0 0 0 0 0 0 0 0 0 3 23 5 5 5 0 0 0 0 0 0 9 64 10 57 35
6 14 23 50 21 40 28 24 96 100 57 5 5 7 11 5 0 0 0 0 0 0 0 0 0 0 0 0 0 3 5 5 5 5 0 0 0 0 0 0 0 0 0 2 100
100 13 17 28 23 32 31 20 5 19 96 40 1 0 4 5 4 0 0 0 0 0 0 0 0 0 0 0 0 0 2 2 5 1 0 0 0 0 0 0 0 0 0 0 0
100 100 82 30 28 30 7 5 5 5 5 5 5 5 5 5 5 5 0 0 0 0 0 0 0 0 0 0 0 0 1 3 1 0 0 0 0 0 0 0 0 0 0 0 0
100 100 100 100 52 57 67 5 5 5 5 5 5 5 5 5 5 5 0 1 4 4 0 0 0 0 0 0 0 0 0 0 0 0 0 0 0 0 0 0 0 0 0 0 0
100 100 100 100 85 100 7 5 5 5 5 5 5 5 5 5 5 5 5 5 5 5 4 5 0 0 0 0 0 0 0 0 0 0 0 0 0 0 0 0 0 0 0 0 0
36 65 29 100 92 59 16 5 5 5 5 5 5 5 5 0 5 5 4 2 2 0 0 0 0 0 0 0 0 0 0 0 0 0 0 0 0 0 4 0 0 0 0 0 0
2 4 5 5 23 25 26 5 11 5 5 16 9 5 8 5 5 0 5 0 0 0 0 0 0 0 0 0 0 0 0 0 0 0 0 0 0 0 0 0 0 0 0 0 0
4 1 7 12 6 20 5 5 61 43 46 7 5 5 14 4 5 2 0 5 0 0 0 0 0 0 0 0 0 0 0 0 0 0 0 0 0 0 0 0 0 0 0 0 0
5 26 5 5 1 5 5 5 29 5 20 5 5 5 5 5 5 5 2 0 0 0 0 0 0 0 0 0 0 0 0 0 0 0 0 0 0 0 0 0 0 0 0 0 0
89 22 16 5 5 5 5 5 5 5 12 5 5 5 5 5 5 0 5 0 0 0 0 0 0 0 0 0 0 0 0 0 0 0 0 0 0 0 0 0 0 0 0 0 15
5 4 5 5 5 4 5 7 5 5 26 5 5 65 5 5 0 0 0 0 0 0 0 0 0 0 0 0 0 0 0 0 0 0 0 0 0 0 0 0 0 0 0 0 0
97 12 62 22 15 5 14 5 28 5 5 51 5 38 5 5 0 0 0 0 0 0 0 0 0 0 0 0 0 0 0 0 0 0 0 0 0 0 0 0 0 0 0 0 0
14 100 19 5 11 45 64 7 5 5 5 36 33 5 5 3 0 0 0 0 0 0 0 0 0 0 0 0 0 0 0 0 0 4 0 0 0 8 5 0 5 0 0 4 5
0 4 5 5 56 19 5 40 5 5 18 5 5 5 2 3 5 3 0 0 0 0 0 0 0 0 0 0 0 0 0 0 0 0 0 5 0 72 20 7 2 5 5 17 100
0 0 3 5 5 5 3 5 5 29 83 58 6 5 5 1 0 0 5 0 0 0 0 0 0 0 0 0 0 0 2 1 0 0 0 12 0 5 100 100 77 5 5 19 6
0 0 0 0 5 5 4 1 5 6 13 11 88 5 5 5 1 0 0 0 0 0 0 0 0 4 0 1 8 60 45 6 10 5 4 12 0 0 70 100 9 0 2 2 0
0 0 0 0 0 0 0 4 5 5 0 0 2 5 5 5 3 3 0 0 0 0 0 0 0 36 9 55 5 55 1 45 2 5 0 0 4 5 20 84 94 0 0 0 0
0 0 0 0 0 0 0 0 0 0 0 0 0 0 0 0 0 0 0 0 0 0 0 0 0 0 0 0 0 2 81 89 5 4 0 0 0 0 4 5 5 0 0 0 0
5 5 1 0 0 0 0 0 0 0 0 0 0 0 0 0 0 0 0 0 0 0 0 0 0 0 0 1 5 2 4 5 4 0 0 0 0 4 6 28 37 11 29 3 3
70 6 5 0 0 0 0 0 0 0 0 0 0 0 0 0 0 0 0 0 0 0 0 0 0 0 0 1 94 98 8 8 6 0 0 0 0 0 31 36 100 100 18 4 54
69 5 2 0 0 0 0 0 0 0 0 0 0 0 0 0 0 0 0 0 0 0 0 0 0 0 0 0 0 31 58 49 6 35 0 5 0 0 0 0 1 63 6 0 34
36 7 4 0 0 0 0 0 0 0 0 0 0 0 0 0 0 0 0 0 0 0 0 0 0 0 1 0 1 0 0 5 5 12 18 0 2 0 0 1 0 4 3 5 5
5 5 5 4 0 0 0 0 0 0 0 0 0 0 0 0 0 0 0 0 0 0 0 0 0 0 0 0 0 0 0 4 5 36 41 0 3 2 5 4 0 0 0 1 2
0 0 0 0 5 5 3 0 0 0 0 0 0 0 0 0 0 0 0 0 0 0 0 0 0 5 4 0 0 0 0 0 0 83 84 5 5 4 5 4 5 5 5 0 0
4 9 9 5 3 0 0 0 0 0 0 0 0 0 0 0 0 0 0 0 0 2 4 9 10 37 4 1 2 3 0 0 1 1 50 92 20 5 7 5 52 6 21 5 0